sat.trackr.live / text

‹ back to catalog

STARLINK-35785

NORAD 67176 · 2025-303P

PAYLOAD ACTIVE UNKNOWN

§ Identity

Operator
Country
US
Launch date
2025-12-17
Launch site
AFETR
Launch vehicle
Mass (kg)
RCS (m²)

Purposes: comms

External: N2YO · Heavens-Above · Gunter

§ Orbital elements

Epoch: 2026-05-24T23:41:25.302624Z

Period
94.27 min
Inclination
43.0024°
Eccentricity
0.0001684
Mean motion
15.27587673 rev/d
Perigee alt
481.9 km
Apogee alt
484.2 km
Semi-major
6,861.2 km
B*
4.1407e-4
RAAN
239.8432°
Arg perigee
277.4003°
Mean anomaly
82.6657°
Rev number
2,440

§ Raw data

STARLINK-357851 67176U 25303P   26144.98709841  .00011152  00000+0  41407-3 0  99912 67176  43.0024 239.8432 0001684 277.4003  82.6657 15.27587673 24400

JSON: /api/v1/satellites/67176 · /tle

For live sub-satellite position, see the globe view (requires WebGL).

§ Visibility from observer

Set your observer location to see the next 7 days of passes ≥ 10°. The values pass through the URL so the page stays shareable.

No JS? Fill the form by hand. The geolocation button needs JavaScript.